| time (UTC) | temp C | wind direction | speed KPH | gust KPH | rain 1hr cm | rain 24hr cm | rain mn cm | humidity % | barometer mb |
| 20260504151018 | 21 | 274 | 1.6 | 4.8 | 0.00 | 0.00 | 0.00 | 56 | 1008.3 |
| 20260504141018 | 20 | 275 | 3.2 | 6.4 | 0.00 | 0.00 | 0.00 | 60 | 1008.1 |
| 20260504081023 | 18 | 290 | 1.6 | 3.2 | 0.00 | 0.00 | 0.00 | 63 | 1008.9 |
| 20260504050019 | 19 | 320 | 1.6 | 3.2 | 0.00 | 0.00 | 0.00 | 55 | 1008.5 |
| 20260504045057 | 19 | 291 | 1.6 | 4.8 | 0.00 | 0.00 | 0.00 | 55 | 1008.5 |
| 20260504044026 | 19 | 301 | 1.6 | 3.2 | 0.00 | 0.00 | 0.00 | 54 | 1008.7 |
| 20260504043023 | 20 | 298 | 1.6 | 4.8 | 0.00 | 0.00 | 0.00 | 53 | 1009.1 |
| 20260504042025 | 20 | 284 | 1.6 | 8.0 | 0.00 | 0.00 | 0.00 | 53 | 1009.4 |
| 20260504041017 | 20 | 274 | 1.6 | 8.0 | 0.00 | 0.00 | 0.00 | 54 | 1009.0 |
| 20260504040017 | 20 | 279 | 1.6 | 3.2 | 0.00 | 0.00 | 0.00 | 53 | 1009.9 |
| 20260504035017 | 19 | 285 | 1.6 | 8.0 | 0.00 | 0.00 | 0.00 | 53 | 1009.9 |
| 20260504034020 | 19 | 302 | 0.0 | 3.2 | 0.00 | 0.00 | 0.00 | 52 | 1010.1 |
| 20260504033100 | 20 | 289 | 0.0 | 3.2 | 0.00 | 0.00 | 0.00 | 52 | 1010.1 |
| 20260504032100 | 20 | 293 | 0.0 | 1.6 | 0.00 | 0.00 | 0.00 | 51 | 1010.2 |
| 20260504031018 | 20 | 273 | 1.6 | 4.8 | 0.00 | 0.00 | 0.00 | 50 | 1010.0 |
| 20260504030018 | 20 | 276 | 3.2 | 6.4 | 0.00 | 0.00 | 0.00 | 49 | 1009.9 |
| 20260504025021 | 20 | 275 | 1.6 | 3.2 | 0.00 | 0.00 | 0.00 | 49 | 1009.8 |
| 20260504024018 | 20 | 276 | 1.6 | 4.8 | 0.00 | 0.00 | 0.00 | 48 | 1009.8 |
| 20260504023018 | 21 | 270 | 3.2 | 8.0 | 0.00 | 0.00 | 0.00 | 48 | 1009.7 |
| 20260504022021 | 21 | 276 | 1.6 | 4.8 | 0.00 | 0.00 | 0.00 | 47 | 1009.6 |
| 20260504021021 | 21 | 275 | 1.6 | 3.2 | 0.00 | 0.00 | 0.00 | 47 | 1009.6 |
| 20260504020059 | 21 | 279 | 1.6 | 4.8 | 0.00 | 0.00 | 0.00 | 47 | 1009.6 |
| 20260504015018 | 21 | 274 | 1.6 | 4.8 | 0.00 | 0.00 | 0.00 | 46 | 1009.4 |
| 20260504014019 | 21 | 272 | 1.6 | 4.8 | 0.00 | 0.00 | 0.00 | 46 | 1009.4 |
| 20260504013019 | 22 | 278 | 1.6 | 4.8 | 0.00 | 0.00 | 0.00 | 45 | 1009.3 |
| 20260504012019 | 22 | 272 | 1.6 | 3.2 | 0.00 | 0.00 | 0.00 | 44 | 1009.2 |
| 20260504011019 | 22 | 278 | 1.6 | 3.2 | 0.00 | 0.00 | 0.00 | 43 | 1009.2 |
| 20260504010019 | 23 | 275 | 3.2 | 4.8 | 0.00 | 0.00 | 0.00 | 42 | 1009.2 |
| 20260504005016 | 23 | 272 | 3.2 | 6.4 | 0.00 | 0.00 | 0.00 | 41 | 1009.1 |
| 20260504004019 | 23 | 265 | 3.2 | 8.0 | 0.00 | 0.00 | 0.00 | 40 | 1009.2 |
| 20260504003019 | 24 | 264 | 3.2 | 6.4 | 0.00 | 0.00 | 0.00 | 40 | 1009.2 |
| 20260504002020 | 25 | 261 | 3.2 | 6.4 | 0.00 | 0.00 | 0.00 | 39 | 1009.2 |
| 20260504001020 | 25 | 264 | 3.2 | 6.4 | 0.00 | 0.00 | 0.00 | 38 | 1009.2 |
| 20260504000017 | 25 | 266 | 4.8 | 8.0 | 0.00 | 0.00 | 0.00 | 37 | 1009.2 |
| 20260503235021 | 25 | 261 | 4.8 | 6.4 | 0.00 | 0.00 | 0.00 | 37 | 1009.3 |
| 20260503234020 | 25 | 264 | 4.8 | 8.0 | 0.00 | 0.00 | 0.00 | 36 | 1009.4 |
| 20260503233017 | 25 | 265 | 4.8 | 9.7 | 0.00 | 0.00 | 0.00 | 35 | 1009.4 |
| 20260503232017 | 26 | 264 | 4.8 | 8.0 | 0.00 | 0.00 | 0.00 | 34 | 1009.4 |
| 20260503231018 | 27 | 264 | 4.8 | 9.7 | 0.00 | 0.00 | 0.00 | 33 | 1009.4 |
| 20260503225017 | 27 | 270 | 4.8 | 9.7 | 0.00 | 0.00 | 0.00 | 31 | 1009.7 |
| 20260503224058 | 27 | 274 | 4.8 | 9.7 | 0.00 | 0.00 | 0.00 | 31 | 1009.6 |
| 20260503223018 | 27 | 275 | 4.8 | 6.4 | 0.00 | 0.00 | 0.00 | 31 | 1009.7 |
| 20260503222018 | 27 | 270 | 3.2 | 8.0 | 0.00 | 0.00 | 0.00 | 33 | 1009.8 |
| 20260503221018 | 27 | 265 | 4.8 | 8.0 | 0.00 | 0.00 | 0.00 | 32 | 1009.9 |
| 20260503220019 | 27 | 264 | 4.8 | 11.3 | 0.00 | 0.00 | 0.00 | 32 | 1009.9 |
| 20260503215058 | 27 | 274 | 4.8 | 8.0 | 0.00 | 0.00 | 0.00 | 33 | 1010.0 |
| 20260503214019 | 27 | 267 | 4.8 | 9.7 | 0.00 | 0.00 | 0.00 | 33 | 1010.0 |
| 20260503213019 | 27 | 269 | 4.8 | 14.5 | 0.00 | 0.00 | 0.00 | 33 | 1010.0 |
| 20260503212019 | 27 | 272 | 4.8 | 8.0 | 0.00 | 0.00 | 0.00 | 34 | 1010.2 |
| 20260503211059 | 26 | 272 | 4.8 | 11.3 | 0.00 | 0.00 | 0.00 | 34 | 1010.4 |
| 20260503210019 | 26 | 272 | 4.8 | 12.9 | 0.00 | 0.00 | 0.00 | 36 | 1010.5 |
| 20260503205019 | 25 | 271 | 4.8 | 11.3 | 0.00 | 0.00 | 0.00 | 36 | 1010.7 |
| 20260503204140 | 25 | 262 | 4.8 | 9.7 | 0.00 | 0.00 | 0.00 | 35 | 1010.9 |
| 20260503203016 | 25 | 276 | 4.8 | 12.9 | 0.00 | 0.00 | 0.00 | 38 | 1011.2 |
| 20260503202016 | 24 | 253 | 3.2 | 12.9 | 0.00 | 0.00 | 0.00 | 37 | 1011.4 |
| 20260503201020 | 24 | 276 | 3.2 | 11.3 | 0.00 | 0.00 | 0.00 | 37 | 1011.7 |
| 20260503200020 | 23 | 248 | 3.2 | 9.7 | 0.00 | 0.00 | 0.00 | 37 | 1011.9 |
| 20260503195017 | 23 | 272 | 4.8 | 8.0 | 0.00 | 0.00 | 0.00 | 37 | 1012.1 |
| 20260503194017 | 23 | 270 | 3.2 | 9.7 | 0.00 | 0.00 | 0.00 | 37 | 1012.4 |
| 20260503193017 | 23 | 283 | 3.2 | 8.0 | 0.00 | 0.00 | 0.00 | 37 | 1012.8 |
| 20260503192021 | 22 | 278 | 4.8 | 9.7 | 0.00 | 0.00 | 0.00 | 37 | 1013.0 |
| 20260503191101 | 22 | 281 | 4.8 | 9.7 | 0.00 | 0.00 | 0.00 | 38 | 1013.2 |
| 20260503190018 | 22 | 255 | 3.2 | 8.0 | 0.00 | 0.00 | 0.00 | 38 | 1013.4 |
| 20260503185018 | 22 | 271 | 3.2 | 8.0 | 0.00 | 0.00 | 0.00 | 40 | 1013.8 |
| 20260503184018 | 22 | 274 | 4.8 | 12.9 | 0.00 | 0.00 | 0.00 | 40 | 1014.0 |
| 20260503183140 | 22 | 171 | 1.6 | 6.4 | 0.00 | 0.00 | 0.00 | 40 | 1014.2 |
| 20260503182018 | 21 | 266 | 3.2 | 6.4 | 0.00 | 0.00 | 0.00 | 41 | 1014.6 |
| 20260503181021 | 21 | 256 | 3.2 | 8.0 | 0.00 | 0.00 | 0.00 | 41 | 1014.9 |
| 20260503180058 | 21 | 273 | 4.8 | 9.7 | 0.00 | 0.00 | 0.00 | 41 | 1015.2 |
| 20260503174018 | 20 | 273 | 3.2 | 8.0 | 0.00 | 0.00 | 0.00 | 41 | 1016.1 |
| 20260503173018 | 20 | 278 | 3.2 | 8.0 | 0.00 | 0.00 | 0.00 | 41 | 1016.4 |
| 20260503172019 | 19 | 278 | 3.2 | 11.3 | 0.00 | 0.00 | 0.00 | 42 | 1016.6 |
| 20260503171059 | 19 | 278 | 3.2 | 11.3 | 0.00 | 0.00 | 0.00 | 43 | 1016.7 |